Location: Warszawa
(52.2500°N, 21.0000°E)
Time: 05:53:48
(UTC+02:00)

CUBESAT XI-V - Visible Passes

Search period start: 16 April 2024 00:00
Search period end: 26 April 2024 00:00
Orbit: 658 x 681 km, 98.2° (Epoch: 15 April)

Date Brightness Start Highest point End Pass type
(mag) Time Alt. Az. Time Alt. Az. Time Alt. Az.
16 Apr ? 00:23:10 10° ENE 00:24:24 11° NE 00:25:37 10° NE visible
16 Apr ? 01:59:29 44° ESE 02:00:33 55° ENE 02:05:05 10° N visible
16 Apr ? 03:37:40 22° W 03:37:57 23° W 03:41:37 10° NW visible
17 Apr ? 00:54:10 13° E 00:56:35 18° NE 00:59:45 10° NNE visible
17 Apr ? 02:32:22 61° S 02:33:08 79° WSW 02:37:48 10° NNW visible
17 Apr ? 04:10:33 12° W 04:11:00 12° W 04:12:48 10° WNW visible
18 Apr ? 01:27:03 23° ESE 01:28:54 31° ENE 01:32:58 10° N visible
18 Apr ? 03:05:14 39° WSW 03:05:53 41° W 03:10:18 10° NNW visible
19 Apr ? 00:23:57 10° ENE 00:25:12 11° NE 00:26:29 10° NNE visible
19 Apr ? 01:59:55 39° SE 02:01:21 56° ENE 02:05:54 10° N visible
19 Apr ? 03:38:07 22° WSW 03:38:47 22° W 03:42:25 10° NW visible
20 Apr ? 00:54:35 11° E 00:57:22 19° ENE 01:00:33 10° NNE visible
20 Apr ? 02:32:47 50° S 02:33:57 78° WSW 02:38:36 10° NNW visible
20 Apr ? 04:10:58 11° W 04:11:49 12° W 04:13:31 10° WNW visible
21 Apr ? 01:27:27 21° ESE 01:29:40 31° ENE 01:33:45 10° N visible
21 Apr ? 03:05:38 35° SW 03:06:39 41° W 03:11:03 10° NNW visible
22 Apr ? 00:24:39 10° ENE 00:25:57 11° NE 00:27:15 10° NNE visible
22 Apr ? 02:00:17 34° SE 02:02:07 57° ENE 02:06:38 10° N visible
22 Apr ? 03:38:29 20° WSW 03:39:32 22° W 03:43:08 10° NW visible
23 Apr ? 00:54:57 10° E 00:58:06 19° ENE 01:01:16 10° NNE visible
23 Apr ? 02:33:08 42° S 02:34:40 77° WSW 02:39:19 10° NNW visible
23 Apr ? 04:11:20 11° W 04:12:33 12° W 04:14:09 10° WNW visible
24 Apr ? 01:27:47 18° ESE 01:30:22 32° ENE 01:34:27 10° N visible
24 Apr ? 03:05:59 32° SW 03:07:22 40° W 03:11:45 10° NNW visible
25 Apr ? 00:25:17 10° ENE 00:26:37 11° NE 00:27:57 10° NNE visible
25 Apr ? 02:00:36 29° SE 02:02:47 57° ENE 02:07:19 10° N visible
25 Apr ? 03:38:48 19° WSW 03:40:13 22° W 03:43:47 10° NW visible
